,,PressureMeas_1m,,PRMeasQMR101_1,,RHStat155_1m_1,,SRMeasQMS101R_1m,,TAStat155_1m_1,,GenWind_1,,GenWind_1,
2017-04-22, 07:00:06,VALID,918.436,VALID,0.0,VALID,98.821,VALID,69.725,VALID,19.329,VALID,225.0,VALID,0.002,
2017-04-22, 07:01:06,VALID,918.438,VALID,0.0,VALID,98.825,VALID,69.562,VALID,19.349,VALID,289.0,VALID,0.221,
2017-04-22, 07:02:06,VALID,918.417,VALID,0.0,VALID,98.77,VALID,69.777,VALID,19.309,VALID,331.0,VALID,0.259,
2017-04-22, 07:03:06,VALID,918.421,VALID,0.0,VALID,98.777,VALID,70.472,VALID,19.286,VALID,341.0,VALID,0.269,
2017-04-22, 07:04:06,VALID,918.434,VALID,0.0,VALID,98.798,VALID,71.52,VALID,19.295,VALID,341.0,VALID,0.023,
2017-04-22, 07:05:06,VALID,918.441,VALID,0.0,VALID,98.808,VALID,72.979,VALID,19.322,VALID,341.0,VALID,0.0,
2017-04-22, 07:06:06,VALID,918.468,VALID,0.0,VALID,98.795,VALID,74.575,VALID,19.352,VALID,341.0,VALID,0.0,
2017-04-22, 07:07:06,VALID,918.49,VALID,0.0,VALID,98.8,VALID,76.374,VALID,19.375,VALID,341.0,VALID,0.0,
2017-04-22, 07:08:06,VALID,918.51,VALID,0.0,VALID,98.791,VALID,78.416,VALID,19.398,VALID,341.0,VALID,0.0,
2017-04-22, 07:09:06,VALID,918.529,VALID,0.0,VALID,98.807,VALID,80.636,VALID,19.416,VALID,341.0,VALID,0.0,
2017-04-22, 07:10:06,VALID,918.547,VALID,0.0,VALID,98.797,VALID,83.06,VALID,19.441,VALID,341.0,VALID,0.011,
2017-04-22, 07:11:06,VALID,918.546,VALID,0.0,VALID,98.773,VALID,85.54,VALID,19.431,VALID,341.0,VALID,0.0,
2017-04-22, 07:12:06,VALID,918.562,VALID,0.0,VALID,98.784,VALID,88.311,VALID,19.437,VALID,341.0,VALID,0.0,
2017-04-22, 07:13:06,VALID,918.583,VALID,0.0,VALID,98.74,VALID,91.497,VALID,19.392,VALID,342.0,VALID,0.099,
2017-04-22, 07:14:06,VALID,918.613,VALID,0.0,VALID,98.769,VALID,95.012,VALID,19.395,VALID,154.0,VALID,0.57,
2017-04-22, 07:15:06,VALID,918.631,VALID,0.0,VALID,98.809,VALID,98.673,VALID,19.485,VALID,154.0,VALID,0.964,
2017-04-22, 07:16:06,VALID,918.654,VALID,0.0,VALID,98.792,VALID,101.803,VALID,19.55,VALID,151.0,VALID,1.46,
2017-04-22, 07:17:06,VALID,918.675,VALID,0.0,VALID,98.782,VALID,104.433,VALID,19.547,VALID,150.0,VALID,1.328,
2017-04-22, 07:18:06,VALID,918.707,VALID,0.0,VALID,98.773,VALID,105.776,VALID,19.576,VALID,149.0,VALID,1.036,
2017-04-22, 07:19:06,VALID,918.728,VALID,0.0,VALID,98.715,VALID,106.398,VALID,19.496,VALID,152.0,VALID,0.891,
2017-04-22, 07:20:06,VALID,918.75,VALID,0.0,VALID,98.704,VALID,107.045,VALID,19.453,VALID,166.0,VALID,0.7,
2017-04-22, 07:21:06,VALID,918.768,VALID,0.0,VALID,98.704,VALID,107.444,VALID,19.412,VALID,158.0,VALID,0.541,
2017-04-22, 07:22:06,VALID,918.791,VALID,0.0,VALID,98.707,VALID,107.895,VALID,19.432,VALID,161.0,VALID,0.379,
2017-04-22, 07:23:06,VALID,918.807,VALID,0.0,VALID,98.72,VALID,108.729,VALID,19.467,VALID,159.0,VALID,0.259,
2017-04-22, 07:24:06,VALID,918.83,VALID,0.0,VALID,98.71,VALID,110.468,VALID,19.47,VALID,112.0,VALID,0.456,
2017-04-22, 07:25:06,VALID,918.841,VALID,0.0,VALID,98.712,VALID,112.905,VALID,19.472,VALID,124.0,VALID,0.403,
2017-04-22, 07:26:06,VALID,918.855,VALID,0.0,VALID,98.714,VALID,115.861,VALID,19.482,VALID,149.0,VALID,0.287,
2017-04-22, 07:27:06,VALID,918.867,VALID,0.0,VALID,98.696,VALID,119.088,VALID,19.487,VALID,164.0,VALID,0.486,
2017-04-22, 07:28:06,VALID,918.87,VALID,0.0,VALID,98.675,VALID,122.262,VALID,19.465,VALID,163.0,VALID,0.672,
2017-04-22, 07:29:06,VALID,918.876,VALID,0.0,VALID,98.695,VALID,125.135,VALID,19.473,VALID,154.0,VALID,1.114,
2017-04-22, 07:30:06,VALID,918.882,VALID,0.0,VALID,98.658,VALID,127.589,VALID,19.446,VALID,151.0,VALID,1.064,
2017-04-22, 07:31:06,VALID,918.89,VALID,0.0,VALID,98.678,VALID,129.705,VALID,19.487,VALID,145.0,VALID,0.827,
2017-04-22, 07:32:06,VALID,918.896,VALID,0.0,VALID,98.703,VALID,131.549,VALID,19.519,VALID,142.0,VALID,0.639,
2017-04-22, 07:33:06,VALID,918.911,VALID,0.0,VALID,98.715,VALID,132.872,VALID,19.553,VALID,154.0,VALID,0.753,
2017-04-22, 07:34:06,VALID,918.934,VALID,0.0,VALID,98.69,VALID,133.848,VALID,19.555,VALID,151.0,VALID,0.914,
2017-04-22, 07:35:06,VALID,918.956,VALID,0.0,VALID,98.645,VALID,135.126,VALID,19.508,VALID,150.0,VALID,0.767,
2017-04-22, 07:36:06,VALID,918.98,VALID,0.0,VALID,98.693,VALID,136.488,VALID,19.598,VALID,152.0,VALID,1.003,
2017-04-22, 07:37:06,VALID,919.018,VALID,0.0,VALID,98.723,VALID,137.966,VALID,19.669,VALID,150.0,VALID,0.534,
2017-04-22, 07:38:06,VALID,919.045,VALID,0.0,VALID,98.741,VALID,139.13,VALID,19.759,VALID,161.0,VALID,0.738,
2017-04-22, 07:39:06,VALID,919.079,VALID,0.0,VALID,98.659,VALID,140.106,VALID,19.657,VALID,150.0,VALID,0.693,
2017-04-22, 07:40:06,VALID,919.121,VALID,0.0,VALID,98.646,VALID,141.516,VALID,19.621,VALID,164.0,VALID,0.641,
2017-04-22, 07:41:06,VALID,919.158,VALID,0.0,VALID,98.626,VALID,143.477,VALID,19.605,VALID,180.0,VALID,0.368,
2017-04-22, 07:42:06,VALID,919.196,VALID,0.0,VALID,98.686,VALID,146.032,VALID,19.682,VALID,183.0,VALID,0.046,
2017-04-22, 07:43:06,VALID,919.219,VALID,0.0,VALID,98.689,VALID,149.147,VALID,19.754,VALID,184.0,VALID,0.05,
2017-04-22, 07:44:06,VALID,919.236,VALID,0.0,VALID,98.699,VALID,151.571,VALID,19.806,VALID,183.0,VALID,0.014,
2017-04-22, 07:45:06,VALID,919.249,VALID,0.0,VALID,98.719,VALID,153.996,VALID,19.869,VALID,238.0,VALID,0.097,
2017-04-22, 07:46:06,VALID,919.271,VALID,0.0,VALID,98.673,VALID,156.522,VALID,19.879,VALID,243.0,VALID,0.0,
2017-04-22, 07:47:06,VALID,919.262,VALID,0.0,VALID,98.719,VALID,159.016,VALID,19.945,VALID,176.0,VALID,0.353,
2017-04-22, 07:48:06,VALID,919.268,VALID,0.0,VALID,98.666,VALID,162.043,VALID,19.88,VALID,145.0,VALID,0.478,
2017-04-22, 07:49:06,VALID,919.269,VALID,0.0,VALID,98.633,VALID,165.102,VALID,19.858,VALID,141.0,VALID,0.57,
2017-04-22, 07:50:06,VALID,919.257,VALID,0.0,VALID,98.604,VALID,166.209,VALID,19.844,VALID,152.0,VALID,0.455,
2017-04-22, 07:51:06,VALID,919.256,VALID,0.0,VALID,98.599,VALID,167.305,VALID,19.848,VALID,167.0,VALID,0.427,
2017-04-22, 07:52:06,VALID,919.248,VALID,0.0,VALID,98.578,VALID,170.027,VALID,19.828,VALID,160.0,VALID,0.438,
2017-04-22, 07:53:06,VALID,919.247,VALID,0.0,VALID,98.51,VALID,173.743,VALID,19.771,VALID,167.0,VALID,0.387,
2017-04-22, 07:54:06,VALID,919.259,VALID,0.0,VALID,98.554,VALID,175.854,VALID,19.832,VALID,145.0,VALID,0.656,
2017-04-22, 07:55:06,VALID,919.271,VALID,0.0,VALID,98.56,VALID,177.288,VALID,19.868,VALID,167.0,VALID,0.464,
2017-04-22, 07:56:06,VALID,919.288,VALID,0.0,VALID,98.519,VALID,179.243,VALID,19.806,VALID,160.0,VALID,0.211,
2017-04-22, 07:57:06,VALID,919.297,VALID,0.0,VALID,98.564,VALID,181.675,VALID,19.855,VALID,173.0,VALID,0.205,
2017-04-22, 07:58:06,VALID,919.299,VALID,0.0,VALID,98.569,VALID,183.298,VALID,19.91,VALID,176.0,VALID,0.081,
2017-04-22, 07:59:06,VALID,919.308,VALID,0.0,VALID,98.621,VALID,184.63,VALID,20.013,VALID,186.0,VALID,0.025,
2017-04-22, 08:00:06,VALID,919.307,VALID,0.0,VALID,98.568,VALID,186.604,VALID,20.01,VALID,189.0,VALID,0.043,
2017-04-22, 08:01:06,VALID,919.326,VALID,0.0,VALID,98.583,VALID,190.491,VALID,20.032,VALID,163.0,VALID,0.283,
2017-04-22, 08:02:06,VALID,919.334,VALID,0.0,VALID,98.502,VALID,195.443,VALID,19.956,VALID,159.0,VALID,0.145,
2017-04-22, 08:03:06,VALID,919.346,VALID,0.0,VALID,98.518,VALID,197.896,VALID,19.972,VALID,164.0,VALID,0.162,
2017-04-22, 08:04:06,VALID,919.356,VALID,0.0,VALID,98.503,VALID,197.939,VALID,20.012,VALID,164.0,VALID,0.243,
2017-04-22, 08:05:06,VALID,919.374,VALID,0.0,VALID,98.576,VALID,198.489,VALID,20.118,VALID,182.0,VALID,0.062,
2017-04-22, 08:06:06,VALID,919.379,VALID,0.0,VALID,98.524,VALID,193.538,VALID,20.117,VALID,188.0,VALID,0.03,
2017-04-22, 08:07:06,VALID,919.388,VALID,0.0,VALID,98.499,VALID,186.559,VALID,20.098,VALID,188.0,VALID,0.065,
2017-04-22, 08:08:06,VALID,919.395,VALID,0.0,VALID,98.509,VALID,179.651,VALID,20.121,VALID,188.0,VALID,0.015,
2017-04-22, 08:09:06,VALID,919.401,VALID,0.0,VALID,98.481,VALID,174.174,VALID,20.112,VALID,185.0,VALID,0.02,
2017-04-22, 08:10:06,VALID,919.413,VALID,0.0,VALID,98.499,VALID,170.869,VALID,20.141,VALID,163.0,VALID,0.119,
2017-04-22, 08:11:06,VALID,919.42,VALID,0.0,VALID,98.435,VALID,168.016,VALID,20.074,VALID,109.0,VALID,0.415,
2017-04-22, 08:12:06,VALID,919.438,VALID,0.0,VALID,98.25,VALID,165.225,VALID,19.973,VALID,114.0,VALID,0.427,
2017-04-22, 08:13:06,VALID,919.458,VALID,0.0,VALID,98.335,VALID,163.354,VALID,20.046,VALID,120.0,VALID,1.064,
2017-04-22, 08:14:06,VALID,919.47,VALID,0.0,VALID,98.229,VALID,166.754,VALID,19.984,VALID,121.0,VALID,0.745,
2017-04-22, 08:15:06,VALID,919.464,VALID,0.0,VALID,98.212,VALID,175.716,VALID,19.987,VALID,144.0,VALID,0.69,
2017-04-22, 08:16:06,VALID,919.464,VALID,0.0,VALID,98.177,VALID,185.7,VALID,19.97,VALID,163.0,VALID,0.7,
2017-04-22, 08:17:06,VALID,919.46,VALID,0.0,VALID,98.239,VALID,196.071,VALID,20.0,VALID,164.0,VALID,0.591,
2017-04-22, 08:18:06,VALID,919.447,VALID,0.0,VALID,98.259,VALID,199.098,VALID,19.998,VALID,170.0,VALID,0.302,
2017-04-22, 08:19:06,VALID,919.433,VALID,0.0,VALID,98.22,VALID,200.529,VALID,20.004,VALID,138.0,VALID,0.427,
2017-04-22, 08:20:06,VALID,919.435,VALID,0.0,VALID,98.322,VALID,208.295,VALID,20.088,VALID,147.0,VALID,0.653,
2017-04-22, 08:21:06,VALID,919.426,VALID,0.0,VALID,98.423,VALID,212.414,VALID,20.207,VALID,168.0,VALID,0.445,
2017-04-22, 08:22:06,VALID,919.428,VALID,0.0,VALID,98.423,VALID,230.727,VALID,20.272,VALID,172.0,VALID,0.462,
2017-04-22, 08:23:06,VALID,919.419,VALID,0.0,VALID,98.394,VALID,242.145,VALID,20.315,VALID,173.0,VALID,0.879,
2017-04-22, 08:24:06,VALID,919.43,VALID,0.0,VALID,98.189,VALID,241.545,VALID,20.238,VALID,166.0,VALID,0.941,
2017-04-22, 08:25:06,VALID,919.422,VALID,0.0,VALID,98.205,VALID,211.452,VALID,20.269,VALID,161.0,VALID,0.927,
2017-04-22, 08:26:06,VALID,919.434,VALID,0.0,VALID,98.169,VALID,211.291,VALID,20.278,VALID,182.0,VALID,0.681,
2017-04-22, 08:27:06,VALID,919.446,VALID,0.0,VALID,97.951,VALID,206.989,VALID,20.165,VALID,159.0,VALID,1.137,
